Tracking 18784 objects as of 17-August-2017
HD Live streaming from Space Station
objects crossing your sky now

COSMOS 2416

Track COSMOS 2416 now!
10-day predictions
COSMOS 2416 is classified as:


NORAD ID: 28908
Int'l Code: 2005-048A
Perigee: 1,443.2 km
Apogee: 1,454.4 km
Inclination: 82.5 °
Period: 114.7 minutes
Semi major axis: 7819 km
RCS: 1.597 m2 (large)
Launch date: December 21, 2005
Source: Commonwealth of Independent States (former USSR) (CIS)
Launch site: PLESETSK MISSILE AND SPACE COMPLEX (PKMTR)
Your satellite tracking list
Your tracking list is empty





NASA's NSSDC Master Catalog

Two Line Element Set (TLE):
1 28908U 05048A   17227.47749617 +.00000041 +00000-0 +18584-3 0  9992
2 28908 082.4667 211.4150 0007212 162.2232 314.9573 12.55479061533852
Source of the keplerian elements: AFSPC